When you browse on this site, cookies collect data to enhance your experience and personalize the content and advertising you see.
Visit our Privacy Policy to learn more. By continuing to use the site, you agree to this use of cookies and data.
  • In Romania
  • List of Countries
  • For 7 days
  • Water Temperature
  • Weather Map
  • Weather Widgets
  • user-avatar
    Login

    Hourly Weather Buenos Aires

    Today, 5 December, Thursday

    Time Temperature Precipitation Wind Pressure Humidity
    00:00 +15°C° 0 mm 6 mps 759 mmHg 50%
    01:00 +15°C° 0 mm 5 mps 759 mmHg 53%
    02:00 +14°C° 0 mm 4 mps 759 mmHg 54%
    03:00 +14°C° 0 mm 4 mps 759 mmHg 56%
    04:00 +13°C° 0 mm 4 mps 759 mmHg 59%
    05:00 +13°C° 0 mm 4 mps 759 mmHg 62%
    06:00 +14°C° 0 mm 4 mps 759 mmHg 56%
    07:00 +15°C° 0 mm 5 mps 759 mmHg 51%
    08:00 +17°C° 0 mm 5 mps 760 mmHg 46%
    09:00 +19°C° 0 mm 4 mps 759 mmHg 42%
    10:00 +21°C° 0 mm 4 mps 759 mmHg 38%
    11:00 +22°C° 0 mm 4 mps 758 mmHg 33%
    12:00 +25°C° 0 mm 4 mps 758 mmHg 30%
    13:00 +26°C° 0 mm 3 mps 757 mmHg 27%
    14:00 +27°C° 0 mm 3 mps 757 mmHg 24%
    15:00 +27°C° 0 mm 3 mps 756 mmHg 23%
    16:00 +28°C° 0 mm 3 mps 756 mmHg 22%
    17:00 +28°C° 0 mm 3 mps 755 mmHg 21%
    18:00 +27°C° 0 mm 3 mps 755 mmHg 24%
    19:00 +25°C° 0 mm 3 mps 755 mmHg 27%
    20:00 +24°C° 0 mm 3 mps 755 mmHg 30%
    21:00 +23°C° 0 mm 4 mps 755 mmHg 30%
    22:00 +23°C° 0 mm 5 mps 754 mmHg 29%
    23:00 +22°C° 0 mm 6 mps 754 mmHg 29%

    Tomorrow, 6 December, Friday

    Time Temperature Precipitation Wind Pressure Humidity
    00:00 +22°C° 0 mm 6 mps 754 mmHg 29%
    01:00 +22°C° 0 mm 7 mps 754 mmHg 28%
    02:00 +22°C° 0 mm 7 mps 754 mmHg 27%
    03:00 +21°C° 0 mm 7 mps 754 mmHg 28%
    04:00 +21°C° 0 mm 7 mps 754 mmHg 28%
    05:00 +21°C° 0 mm 7 mps 755 mmHg 28%
    06:00 +22°C° 0 mm 6 mps 755 mmHg 28%
    07:00 +23°C° 0 mm 5 mps 756 mmHg 28%
    08:00 +25°C° 0 mm 4 mps 756 mmHg 28%
    09:00 +27°C° 0 mm 4 mps 756 mmHg 24%
    10:00 +28°C° 0 mm 3 mps 757 mmHg 20%
    11:00 +30°C° 0 mm 3 mps 757 mmHg 16%
    12:00 +30°C° 0 mm 3 mps 756 mmHg 16%
    13:00 +31°C° 0 mm 3 mps 756 mmHg 15%
    14:00 +33°C° 0 mm 3 mps 756 mmHg 15%
    15:00 +33°C° 0 mm 3 mps 756 mmHg 16%
    16:00 +33°C° 0 mm 4 mps 756 mmHg 17%
    17:00 +33°C° 0 mm 4 mps 756 mmHg 19%
    18:00 +30°C° 0 mm 5 mps 757 mmHg 22%
    19:00 +28°C° 0 mm 7 mps 758 mmHg 26%
    20:00 +26°C° 0 mm 8 mps 758 mmHg 30%
    21:00 +24°C° 0 mm 7 mps 759 mmHg 35%
    22:00 +23°C° 0 mm 6 mps 760 mmHg 39%
    23:00 +21°C° 0 mm 5 mps 760 mmHg 44%

    Day after tomorrow, 7 December, Saturday

    Time Temperature Precipitation Wind Pressure Humidity
    00:00 +21°C° 0 mm 5 mps 760 mmHg 44%
    01:00 +20°C° 0 mm 4 mps 760 mmHg 44%
    02:00 +19°C° 0 mm 4 mps 760 mmHg 44%
    03:00 +19°C° 0 mm 3 mps 760 mmHg 44%
    04:00 +18°C° 0 mm 3 mps 761 mmHg 45%
    05:00 +17°C° 0 mm 2 mps 761 mmHg 45%
    06:00 +19°C° 0 mm 2 mps 761 mmHg 39%
    07:00 +21°C° 0 mm 2 mps 761 mmHg 33%
    08:00 +24°C° 0 mm 2 mps 761 mmHg 27%
    09:00 +26°C° 0 mm 2 mps 761 mmHg 23%
    10:00 +28°C° 0 mm 2 mps 760 mmHg 19%
    11:00 +30°C° 0 mm 2 mps 760 mmHg 15%
    12:00 +31°C° 0 mm 3 mps 759 mmHg 15%
    13:00 +31°C° 0 mm 3 mps 759 mmHg 14%
    14:00 +31°C° 0 mm 3 mps 758 mmHg 14%
    15:00 +32°C° 0 mm 4 mps 757 mmHg 14%
    16:00 +30°C° 0 mm 4 mps 757 mmHg 14%
    17:00 +30°C° 0 mm 4 mps 756 mmHg 14%
    18:00 +29°C° 0 mm 5 mps 756 mmHg 19%
    19:00 +28°C° 0 mm 5 mps 757 mmHg 24%
    20:00 +27°C° 0 mm 6 mps 757 mmHg 28%
    21:00 +26°C° 0 mm 6 mps 757 mmHg 31%
    22:00 +26°C° 0 mm 7 mps 757 mmHg 33%
    23:00 +24°C° 0 mm 7 mps 757 mmHg 35%

    8 December, Sunday

    Time Temperature Precipitation Wind Pressure Humidity
    00:00 +24°C° 0 mm 7 mps 757 mmHg 36%
    01:00 +23°C° 0 mm 7 mps 757 mmHg 37%
    02:00 +23°C° 0 mm 7 mps 757 mmHg 38%
    03:00 +22°C° 0.1 mm 6 mps 757 mmHg 41%
    04:00 +22°C° 0.1 mm 6 mps 757 mmHg 44%
    05:00 +21°C° 0.1 mm 5 mps 758 mmHg 48%
    06:00 +22°C° 0.8 mm 5 mps 758 mmHg 50%
    07:00 +22°C° 0.8 mm 4 mps 758 mmHg 52%
    08:00 +22°C° 0.8 mm 4 mps 758 mmHg 54%
    09:00 +25°C° 0.9 mm 4 mps 758 mmHg 52%
    10:00 +26°C° 0.9 mm 5 mps 757 mmHg 49%
    11:00 +27°C° 0.9 mm 5 mps 757 mmHg 47%
    12:00 +28°C° 0.6 mm 5 mps 756 mmHg 45%
    13:00 +29°C° 0.6 mm 4 mps 755 mmHg 43%
    14:00 +32°C° 0.6 mm 4 mps 754 mmHg 41%
    15:00 +30°C° 1 mm 5 mps 754 mmHg 44%
    16:00 +28°C° 1 mm 6 mps 754 mmHg 48%
    17:00 +27°C° 1 mm 6 mps 753 mmHg 52%
    18:00 +26°C° 0 mm 7 mps 754 mmHg 59%
    19:00 +24°C° 0 mm 7 mps 754 mmHg 66%
    20:00 +22°C° 0 mm 7 mps 755 mmHg 73%
    21:00 +22°C° 0 mm 6 mps 755 mmHg 72%
    22:00 +22°C° 0 mm 5 mps 755 mmHg 71%
    23:00 +22°C° 0 mm 4 mps 756 mmHg 70%

    9 December, Monday

    Time Temperature Precipitation Wind Pressure Humidity
    00:00 +21°C° 0 mm 3 mps 756 mmHg 71%
    01:00 +21°C° 0 mm 2 mps 756 mmHg 73%
    02:00 +22°C° 0 mm 1 mps 756 mmHg 75%
    03:00 +22°C° 0 mm 1 mps 756 mmHg 76%
    04:00 +22°C° 0 mm 1 mps 756 mmHg 76%
    05:00 +22°C° 0 mm 1 mps 756 mmHg 77%
    06:00 +24°C° 0 mm 1 mps 756 mmHg 68%
    07:00 +26°C° 0 mm 2 mps 756 mmHg 60%
    08:00 +28°C° 0 mm 3 mps 756 mmHg 51%
    09:00 +30°C° 0 mm 2 mps 756 mmHg 44%
    10:00 +32°C° 0 mm 2 mps 755 mmHg 37%
    11:00 +36°C° 0 mm 2 mps 755 mmHg 30%
    12:00 +37°C° 0 mm 2 mps 754 mmHg 26%
    13:00 +38°C° 0 mm 2 mps 754 mmHg 23%
    14:00 +40°C° 0 mm 2 mps 753 mmHg 19%
    15:00 +39°C° 0 mm 3 mps 753 mmHg 20%
    16:00 +38°C° 0 mm 3 mps 752 mmHg 21%
    17:00 +38°C° 0 mm 4 mps 752 mmHg 22%
    18:00 +36°C° 0 mm 5 mps 752 mmHg 26%
    19:00 +35°C° 0 mm 5 mps 752 mmHg 30%
    20:00 +33°C° 0 mm 6 mps 753 mmHg 34%
    21:00 +32°C° 0 mm 6 mps 753 mmHg 36%
    22:00 +32°C° 0 mm 5 mps 753 mmHg 37%
    23:00 +30°C° 0 mm 5 mps 753 mmHg 39%

    10 December, Tuesday

    Time Temperature Precipitation Wind Pressure Humidity
    00:00 +30°C° 0 mm 5 mps 753 mmHg 39%
    01:00 +30°C° 0 mm 6 mps 753 mmHg 40%
    02:00 +29°C° 0 mm 6 mps 753 mmHg 40%
    03:00 +29°C° 0 mm 6 mps 753 mmHg 40%
    04:00 +29°C° 0 mm 6 mps 753 mmHg 39%
    05:00 +29°C° 0 mm 6 mps 753 mmHg 38%
    06:00 +30°C° 0 mm 6 mps 753 mmHg 35%
    07:00 +33°C° 0 mm 7 mps 754 mmHg 32%
    08:00 +34°C° 0 mm 7 mps 754 mmHg 29%
    09:00 +36°C° 0 mm 7 mps 754 mmHg 26%
    10:00 +39°C° 0 mm 6 mps 753 mmHg 23%
    11:00 +41°C° 0 mm 6 mps 753 mmHg 20%
    12:00 +41°C° 0 mm 5 mps 752 mmHg 18%
    13:00 +42°C° 0 mm 4 mps 752 mmHg 17%
    14:00 +43°C° 0 mm 4 mps 751 mmHg 16%
    15:00 +37°C° 1 mm 4 mps 752 mmHg 27%
    16:00 +33°C° 1 mm 5 mps 752 mmHg 38%
    17:00 +28°C° 1 mm 6 mps 753 mmHg 49%
    18:00 +28°C° 0.3 mm 6 mps 753 mmHg 49%
    19:00 +27°C° 0.3 mm 6 mps 754 mmHg 49%
    20:00 +27°C° 0.3 mm 6 mps 754 mmHg 49%
    21:00 +26°C° 0 mm 6 mps 755 mmHg 52%
    22:00 +24°C° 0 mm 6 mps 755 mmHg 55%
    23:00 +23°C° 0 mm 6 mps 756 mmHg 58%
    Show more